Location: Elmsmere
(40.9284°N, 73.8207°W)
Time: 15:47:38
(UTC+00:00)

STARLINK-2752 - Pass Details

Date: 26 June 2021
Orbit: 348 x 351 km, 53.0° (Epoch: 27 July)

Event Time Altitude Azimuth Distance (km) Brightness Sun altitude
Exits shadow 05:58:51 - 87° (E) 1,897 6.6 -24.2°
Enters shadow 06:54:20 -68° 232° (SW) 12,220 10.4 -20.3°
Maximum altitude 07:30:44 89° 322° (NW) 350 2.5 -16.6°
